Powrót do katalogu

STARLINK-38127

AktywnyŁącznośćSSO
NORAD 100155·PAYLOAD·🇺🇸 United States

Wystrzelony Jul 25, 2026 z Vandenberg Space Force Base

Loading…

Następne Przeloty (najbliższe 24 godziny)

TLE

ŚwieżeSource: Space-Track

Epoka: Sep 14, 2026, 22:06 UTC

1 A0155U 26171H   26257.92089188  .00018675  00000-0  51787-3 0  9993
2 A0155  97.2834 290.4809 0001175  72.5067 287.6306 15.36980493  8041

Śledź STARLINK-38127 w czasie rzeczywistym z AllMySat

Download on the App Store